User: anonymous   Login
Location: Unspecified
(0.0000°N, 0.0000°E)
Time: 13:25:58
(UTC+00:00)
Language:

Vanguard 2 Rocket - Orbit

View from above orbital plane
View from above orbital plane
View from above satellite
View from above satellite

Ground track
Ground track

The orbit data is extracted from the following two-line orbital elements,

1    12U 59001B   19200.90990073 +.00000239 +00000-0 +14228-3 0  9991
2    12 032.9000 077.9353 1666346 122.3968 254.8820 11.44273945241765
Epoch (UTC): 19 July 2019 21:50:15
Eccentricity: 0.1666346
inclination: 32.9000°
perigee height: 554 km
apogee height: 3326 km
right ascension of ascending node: 77.9353°
argument of perigee: 122.3968°
revolutions per day: 11.44273945
mean anomaly at epoch: 254.8820°
orbit number at epoch: 24176

The dashed part of the orbit path shows where the satellite is in the earth's shadow,  

DLR